Simultaneous Nadir Overpasses (SNOs) Predictions

Prediction of SNOs between LANDSAT-8 and NOAA-19 Satellite Orbit:

Table of predicted SNOs for the next 14.0 days since TLE Epoch: 11/17/2018
Index Date (LANDSAT-8) Time (LANDSAT-8) Lat,Lon (LANDSAT-8) SZA (LANDSAT-8 ) Date (NOAA-19) Time (NOAA-19) Lat,Lon (NOAA-19) SZA (NOAA-19 ) Distance(km) Time Diff (sec)
1 11/18/2018 09:17:49 78.19, 56.95 98.05 11/18/2018 09:17:04 78.18, 56.91 98.04 0.95 45
2 11/18/2018 10:07:17 -78.15,-135.56 81.99 11/18/2018 10:08:02 -78.14,-135.56 81.99 1.72 45
3 11/20/2018 14:51:34 -78.17, 153.45 81.46 11/20/2018 14:50:34 -78.21, 153.45 81.44 4.35 60
4 11/20/2018 15:41:00 78.16, -38.95 98.54 11/20/2018 15:41:35 78.16, -39.00 98.54 1.14 35
5 11/22/2018 20:25:16 78.22,-109.76 99.08 11/22/2018 20:24:07 78.22,-109.89 99.05 3.11 69
6 11/22/2018 21:14:44 -78.19, 57.74 80.96 11/22/2018 21:15:04 -78.17, 57.63 80.97 3.18 20
7 11/25/2018 02:48:27 78.19, 154.30 99.49 11/25/2018 02:48:37 78.16, 154.38 99.47 3.05 10
8 11/27/2018 08:22:10 -78.21,-109.01 80.08 11/27/2018 08:22:04 -78.18,-109.02 80.11 3.09 6
9 11/29/2018 13:55:53 78.20, -12.51 100.29 11/29/2018 13:55:39 78.22, -12.54 100.30 2.27 14




NCC Satellite Simultaneous Nadir Overpasses (SNOs) Prediction Service
